Weather History for Langley AFB, VA

Change the Weather History Date:

Monday, July 15, 2013

  Actual Average Record
Temperature  
Mean Temperature 80 °F -  
Max Temperature 90 °F 86 °F 98 °F (1997)
Min Temperature 70 °F 72 °F 58 °F (1940)
Cooling Degree Days 15    
Growing Degree Days 30 (Base 50)    
Moisture  
Dew Point 74 °F    
Average Humidity 88    
Maximum Humidity 100    
Minimum Humidity 58    
Precipitation  
Precipitation 0.00 in - - ()
Sea Level Pressure  
Sea Level Pressure 30.30 in    
Wind  
Wind Speed 3 mph (WSW)    
Max Wind Speed 8 mph    
Max Gust Speed -    
Visibility 9 miles    
Events Rain    
Averages and records for this station are not official NWS values.
T = Trace of Precipitation, MM = Missing Value Source: NWS Daily Summary

Daily Weather History Graph

Daily Weather History Graph

Search for Another Location

Airport:

Trip Planner

Search our weather history database for the weather conditions in past years. The results will help you decide how hot, cold, wet, or windy it might be!

Date:

Astronomy

Jul. 15, 2013 Rise Set
Actual Time 5:57 AM EDT 8:24 PM EDT
Civil Twilight 5:27 AM EDT 8:54 PM EDT
Nautical Twilight 4:50 AM EDT 9:31 PM EDT
Astronomical Twilight 4:09 AM EDT 10:12 PM EDT
Moon 1:03 PM EDT (7/15) No Moon Set
Length of Visible Light 15h 27m
Length of Day
14h 27m
Waxing Crescent, 45% of the Moon is Illuminated
Jul 15
Waxing Crescent
Jul 15
First Quarter
Jul 22
Full
Jul 29
Last Quarter
Aug 6
New

Hourly Weather History & Observations

Time (EDT) Temp. Heat Index Dew Point Humidity Pressure Visibility Wind Dir Wind Speed Gust Speed Precip Events Conditions
12:02 AM 77.0 °F - 77.0 °F 100% 30.31 in 10.0 mi SSE 2.3 mph - N/A Rain Light Rain
12:05 AM 77.0 °F - 77.0 °F 100% 30.31 in 10.0 mi South 1.2 mph - N/A   Clear
12:06 AM 77.0 °F - 77.0 °F 100% 30.31 in 10.0 mi South 2.3 mph - N/A Rain Light Rain
12:12 AM 77.0 °F - 77.0 °F 100% 30.31 in 10.0 mi South 2.3 mph - N/A   Clear
12:13 AM 77.0 °F - 77.0 °F 100% 30.31 in 10.0 mi South 2.3 mph - N/A Rain Light Rain
12:16 AM 77.0 °F - 77.0 °F 100% 30.31 in 10.0 mi SSE 2.3 mph - N/A   Clear
12:58 AM 76.3 °F - 76.1 °F 99% 30.31 in 10.0 mi SE 2.3 mph - 0.00 in   Clear
1:58 AM 72.9 °F - 72.9 °F 100% 30.30 in 10.0 mi Calm Calm - N/A   Clear
2:58 AM 72.3 °F - 72.3 °F 100% 30.30 in 10.0 mi Calm Calm - N/A   Clear
3:58 AM 71.6 °F - 71.6 °F 100% 30.29 in 10.0 mi West 2.3 mph - N/A   Clear
4:48 AM 71.6 °F - 71.6 °F 100% 30.30 in 5.0 mi WNW 1.2 mph - N/A   Clear
4:53 AM 71.6 °F - 71.6 °F 100% 30.31 in 3.0 mi West 1.2 mph - N/A   Clear
4:58 AM 71.1 °F - 71.1 °F 100% 30.30 in 5.0 mi Calm Calm - N/A   Clear
5:03 AM 71.6 °F - 71.6 °F 100% 30.30 in 10.0 mi Calm Calm - N/A   Clear
5:13 AM 71.6 °F - 71.6 °F 100% 30.31 in 5.0 mi Calm Calm - N/A   Clear
5:18 AM 71.6 °F - 71.6 °F 100% 30.31 in 3.0 mi West 1.2 mph - N/A   Clear
5:23 AM 71.6 °F - 71.6 °F 100% 30.31 in 5.0 mi Calm Calm - N/A   Clear
5:28 AM 71.6 °F - 71.6 °F 100% 30.31 in 8.0 mi West 1.2 mph - N/A   Clear
5:43 AM 71.6 °F - 71.6 °F 100% 30.31 in 8.0 mi West 3.5 mph - N/A   Clear
5:58 AM 70.7 °F - 70.7 °F 100% 30.31 in 7.0 mi West 2.3 mph - N/A   Clear
6:58 AM 72.9 °F - 72.9 °F 100% 30.31 in 10.0 mi West 1.2 mph - N/A   Clear
7:28 AM 75.2 °F - 75.2 °F 100% 30.32 in 10.0 mi West 2.3 mph - N/A   Partly Cloudy
7:53 AM 77.0 °F - 77.0 °F 100% 30.32 in 10.0 mi WNW 3.5 mph - N/A   Mostly Cloudy
7:58 AM 77.0 °F - 77.0 °F 100% 30.32 in 10.0 mi West 3.5 mph - N/A   Mostly Cloudy
8:03 AM 77.0 °F - 77.0 °F 100% 30.33 in 10.0 mi West 2.3 mph - N/A   Scattered Clouds
8:46 AM 78.8 °F - 77.0 °F 94% 30.33 in 10.0 mi Variable 2.3 mph - N/A   Partly Cloudy
8:58 AM 80.2 °F 86.1 °F 76.6 °F 89% 30.33 in 10.0 mi WSW 3.5 mph - 0.00 in   Partly Cloudy
8:59 AM 80.6 °F 87.1 °F 77.0 °F 89% 30.33 in 10.0 mi West 3.5 mph - N/A Rain Light Rain
9:56 AM 82.4 °F 89.5 °F 75.2 °F 79% 30.34 in 10.0 mi WNW 3.5 mph - N/A   Partly Cloudy
10:39 AM 84.2 °F 92.3 °F 75.2 °F 74% 30.31 in 10.0 mi WNW 3.5 mph - N/A   Scattered Clouds
10:55 AM 84.2 °F 92.3 °F 75.2 °F 74% 30.33 in 10.0 mi NW 5.8 mph - N/A   Mostly Cloudy
11:00 AM 82.4 °F 88.2 °F 73.4 °F 74% 30.31 in 10.0 mi WNW 3.5 mph - N/A   Scattered Clouds
11:55 AM 84.2 °F 92.3 °F 75.2 °F 74% 30.33 in 10.0 mi Variable 2.3 mph - N/A   Partly Cloudy
12:55 PM 84.2 °F 92.3 °F 75.2 °F 74% 30.33 in 10.0 mi Variable 2.3 mph - N/A   Mostly Cloudy
1:55 PM 86.0 °F 96.9 °F 77.0 °F 74% 30.30 in 10.0 mi SE 5.8 mph - N/A   Mostly Cloudy
2:55 PM 87.8 °F 99.7 °F 77.0 °F 70% 30.29 in 10.0 mi East 8.1 mph - N/A   Mostly Cloudy
3:03 PM 87.8 °F 99.7 °F 77.0 °F 70% 30.27 in 10.0 mi Variable 6.9 mph - N/A   Mostly Cloudy
3:08 PM 87.8 °F 99.7 °F 77.0 °F 70% 30.27 in 10.0 mi ESE 5.8 mph - N/A   Mostly Cloudy
3:18 PM 87.8 °F 99.7 °F 77.0 °F 70% 30.27 in 10.0 mi Variable 4.6 mph - N/A   Mostly Cloudy
3:58 PM 88.2 °F 96.4 °F 73.8 °F 62% 30.28 in 10.0 mi ESE 5.8 mph - N/A   Clear
4:58 PM 90.0 °F 98.5 °F 73.2 °F 58% 30.27 in 10.0 mi Variable 5.8 mph - N/A   Partly Cloudy
5:58 PM 88.0 °F 95.1 °F 72.7 °F 60% 30.25 in 10.0 mi WSW 5.8 mph - N/A   Partly Cloudy
6:58 PM 88.5 °F 96.8 °F 73.6 °F 61% 30.25 in 10.0 mi West 5.8 mph - N/A   Clear
7:58 PM 85.8 °F 92.6 °F 73.0 °F 65% 30.24 in 10.0 mi WSW 5.8 mph - N/A   Clear
8:58 PM 82.6 °F 88.1 °F 72.7 °F 72% 30.24 in 10.0 mi SW 5.8 mph - N/A   Clear
9:58 PM 80.2 °F 85.0 °F 74.3 °F 82% 30.25 in 10.0 mi WSW 4.6 mph - N/A   Clear
10:58 PM 80.2 °F 84.9 °F 73.9 °F 81% 30.25 in 10.0 mi WSW 5.8 mph - N/A   Clear
11:58 PM 77.7 °F - 73.6 °F 87% 30.25 in 10.0 mi West 6.9 mph - N/A   Clear